[[{"header":{"parameterUnit":"m.s-1","parameterCategory":1,"la1":30.2991,"la2":30.254,"lo1":-89.0895,"lo2":-89.0444,"dy":0.0017,"dx":0.0017,"nx":28,"ny":28,"refTime":"2025-04-28T03:00:00:Z","depth":0,"parameterNumber":2,"parameterNumberName":"U-component_of_WINDS"},"data":[0,0,0,0,0,0,0,0,0,0,0,0,0,0,0,0,0,0,0,0,0,0,0,0,0,0,0,0,0,0,0,0,0,0,0,0,0,0,0,0,0,0,0,0,0,0,0,0,0,0,0,0,0,0,0,0,0,0,-0.6945,-0.6945,0,-0.6899,-0.6899,-0.6898,-0.6861,-0.686,-0.686,-0.686,-0.6814,-0.6813,-0.6812,0,0,0,0,0,0,0,0,0,0,0,0,0,-0.7003,-0.7002,-0.6945,-0.6945,-0.6944,-0.6899,-0.6899,-0.6898,-0.6861,-0.686,-0.686,-0.6859,-0.6814,-0.6813,-0.6812,0,0,0,0,0,0,0,0,0,0,0,0,0,-0.6969,-0.7002,-0.6945,-0.692,-0.6917,-0.6899,-0.6899,-0.6898,-0.6861,-0.686,-0.686,-0.6859,-0.6815,-0.6813,-0.6812,-0.6816,0,0,-0.6808,-0.6808,0,0,0,0,0,0,0,0,-0.6971,-0.6967,-0.6924,-0.6922,-0.6919,-0.6885,-0.6902,-0.687,-0.6861,-0.6882,-0.686,-0.6859,-0.6838,-0.6835,-0.6828,-0.6814,-0.6812,-0.6808,-0.6807,-0.6807,-0.6806,0,0,0,0,0,0,0,-0.6974,-0.6969,-0.6927,-0.6924,-0.692,-0.6912,-0.6906,-0.6896,-0.6864,-0.688,-0.6878,-0.6873,-0.6837,-0.6829,-0.6826,-0.6811,-0.6808,-0.6807,-0.6806,-0.6806,-0.6799,-0.68,0,0,0,0,0,0,-0.698,-0.6971,-0.6928,-0.6926,-0.6944,-0.6911,-0.6905,-0.6896,-0.6864,-0.6859,-0.6873,-0.6871,-0.6831,-0.6828,-0.6825,-0.6828,-0.6807,-0.6806,-0.6805,-0.6799,-0.6799,-0.68,0,0,0,0,0,0,-0.6981,-0.6976,-0.693,-0.6948,-0.6941,-0.6911,-0.6901,-0.6896,-0.6888,-0.6859,-0.6853,-0.6871,-0.6831,-0.6826,-0.6818,-0.6825,-0.6805,-0.6804,-0.6798,-0.6799,-0.68,-0.6833,0,0,0,0,0,0,-0.6983,-0.6977,-0.6978,-0.6948,-0.694,-0.6925,-0.6902,-0.6895,-0.6886,-0.6883,-0.6855,-0.685,-0.683,-0.6821,-0.6817,-0.6823,-0.6803,-0.6797,-0.6798,-0.6799,-0.6832,-0.6835,-0.6839,0,0,0,0,0,-0.6985,-0.6989,-0.6978,-0.6973,-0.694,-0.6925,-0.6921,-0.6897,-0.6887,-0.6887,-0.6869,-0.6851,-0.6825,-0.682,-0.6816,-0.6822,-0.6797,-0.6798,-0.6799,-0.683,-0.6835,-0.6839,0,0,0,0,0,0,-0.7021,-0.6985,-0.6972,-0.6966,-0.6949,-0.6919,-0.6919,-0.6903,-0.6888,-0.6886,-0.6858,-0.6852,-0.6847,-0.6834,-0.6829,-0.6824,-0.6809,-0.6809,-0.6833,-0.6838,-0.6841,-0.6845,-0.6802,0,0,0,0,0,-0.7028,-0.7017,-0.6987,-0.6985,-0.6977,-0.695,-0.6942,-0.6925,-0.6906,-0.6899,-0.6879,-0.6862,-0.6851,-0.6843,-0.6831,-0.6829,-0.6823,-0.6832,-0.6835,-0.6838,-0.6839,-0.6839,-0.6842,-0.6805,-0.6804,-0.6804,0,0,-0.7042,-0.7021,-0.7017,-0.6991,-0.6976,-0.6967,-0.6944,-0.6935,-0.6928,-0.6898,-0.6889,-0.6875,-0.6854,-0.6849,-0.6847,-0.6838,-0.6848,-0.684,-0.6843,-0.6842,-0.684,-0.6844,-0.6847,-0.6805,-0.6805,-0.6805,0,0,-0.7064,-0.7047,-0.7044,-0.7029,-0.7006,-0.6988,-0.6988,-0.696,-0.6949,-0.694,-0.6917,-0.6909,-0.6889,-0.6875,-0.6866,-0.6884,-0.6868,-0.6881,-0.6899,-0.6899,-0.6902,-0.6904,-0.6912,-0.6914,-0.6882,-0.6882,-0.6882,0,-0.7086,-0.707,-0.7045,-0.7037,-0.7027,-0.6999,-0.6996,-0.6984,-0.6958,-0.6952,-0.6943,-0.6917,-0.6901,-0.6894,-0.6898,-0.6891,-0.689,-0.6884,-0.6903,-0.6906,-0.6908,-0.6914,-0.6917,-0.6883,-0.6883,-0.6883,-0.6883,0,-0.7098,-0.7088,-0.7088,-0.7064,-0.7054,-0.7049,-0.7023,-0.7016,-0.7001,-0.6984,-0.6976,-0.6956,-0.6939,-0.6936,-0.6921,-0.6927,-0.6922,-0.6909,-0.6892,-0.6913,-0.6919,-0.6921,-0.6886,-0.6885,-0.6885,-0.6884,0,0,-0.7141,-0.7103,-0.7104,-0.7093,-0.7066,-0.7058,-0.7052,-0.7035,-0.703,-0.7014,-0.7009,-0.6993,-0.698,-0.6969,-0.6952,-0.6952,-0.6969,-0.6939,-0.6938,-0.6946,-0.6976,-0.6986,-0.699,-0.6958,-0.6958,-0.6958,-0.6978,0,-0.716,-0.7147,-0.7124,-0.7119,-0.711,-0.7084,-0.7079,-0.7062,-0.7046,-0.7037,-0.702,-0.7009,-0.6993,-0.6987,-0.6985,-0.6967,-0.6975,-0.6965,-0.6954,-0.6954,-0.696,-0.6993,-0.7004,-0.7023,-0.698,-0.698,-0.698,0,-0.7179,-0.7164,-0.7158,-0.7133,-0.7128,-0.7124,-0.7107,-0.7098,-0.7079,-0.7068,-0.7056,-0.7038,-0.7031,-0.7016,-0.7007,-0.7002,-0.6996,-0.6986,-0.6986,-0.6985,-0.6969,-0.6992,-0.7028,-0.7031,-0.6983,-0.6983,-0.6983,0,-0.7212,-0.7191,-0.7184,-0.7176,-0.7145,-0.7143,-0.7131,-0.7111,-0.7103,-0.7088,-0.7083,-0.7068,-0.706,-0.705,-0.7028,-0.7019,-0.7022,-0.7005,-0.7013,-0.7014,-0.7015,-0.7015,-0.7051,-0.701,-0.701,-0.701,-0.701,0,-0.7236,-0.7233,-0.7199,-0.7195,-0.7192,-0.7166,-0.7164,-0.7149,-0.7132,-0.7125,-0.7102,-0.7097,-0.7068,-0.706,-0.7043,-0.7039,-0.7035,-0.7026,-0.7022,-0.7029,-0.703,-0.7025,-0.7023,-0.7011,-0.7011,-0.7011,-0.7011,0,-0.7272,-0.7249,-0.724,-0.7212,-0.7205,-0.7204,-0.7181,-0.7177,-0.716,-0.7152,-0.7149,-0.7123,-0.7112,-0.7089,-0.7072,-0.706,-0.7061,-0.7052,-0.7067,-0.7064,-0.7074,-0.7074,-0.7108,-0.7111,-0.7068,-0.7069,-0.7069,0,-0.7289,-0.7286,-0.7258,-0.7252,-0.724,-0.723,-0.7222,-0.7196,-0.7188,-0.7167,-0.7166,-0.7153,-0.7141,-0.7125,-0.7105,-0.7092,-0.7084,-0.7097,-0.7082,-0.7089,-0.7085,-0.7086,-0.7086,-0.71,-0.7101,-0.7101,-0.7102,0,-0.7321,-0.731,-0.7298,-0.7282,-0.7273,-0.7259,-0.7245,-0.7241,-0.7213,-0.7205,-0.7194,-0.7185,-0.7167,-0.7155,-0.7139,-0.7127,-0.711,-0.7106,-0.7108,-0.7115,-0.7124,-0.712,-0.7077,-0.7106,-0.7105,-0.7105,-0.7105,-0.7105,-0.7349,-0.7346,-0.7325,-0.7313,-0.7299,-0.7287,-0.7282,-0.7264,-0.7254,-0.7237,-0.7223,-0.7213,-0.7195,-0.7172,-0.7161,-0.7153,-0.7144,-0.7146,-0.7147,-0.7148,-0.7151,-0.7125,-0.715,-0.715,-0.715,-0.7149,-0.7149,0,-0.7381,-0.7366,-0.7355,-0.7336,-0.7326,-0.731,-0.7294,-0.7287,-0.7279,-0.7263,-0.7252,-0.7239,-0.7227,-0.7206,-0.7193,-0.7191,-0.7183,-0.7189,-0.7189,-0.7186,-0.7159,-0.7159,-0.7195,-0.7195,-0.7195,-0.7195,-0.7195,-0.7195,-0.7396,-0.739,-0.7377,-0.7364,-0.735,-0.7339,-0.7331,-0.732,-0.7307,-0.7294,-0.7284,-0.727,-0.7252,-0.7238,-0.7227,-0.7221,-0.7218,-0.7226,-0.7218,-0.7192,-0.7188,-0.7184,-0.7184,-0.7225,-0.7225,-0.7246,-0.7246,-0.7246]},{"header":{"parameterUnit":"m.s-1","parameterCategory":1,"la1":30.2991,"la2":30.254,"lo1":-89.0895,"lo2":-89.0444,"dy":0.0017,"dx":0.0017,"nx":28,"ny":28,"refTime":"2025-04-28T03:00:00:Z","depth":0,"parameterNumber":3,"parameterNumberName":"V-component_of_WINDS"},"data":[0,0,0,0,0,0,0,0,0,0,0,0,0,0,0,0,0,0,0,0,0,0,0,0,0,0,0,0,0,0,0,0,0,0,0,0,0,0,0,0,0,0,0,0,0,0,0,0,0,0,0,0,0,0,0,0,0,0,3.0219,3.0218,0,3.0172,3.0171,3.0171,3.0119,3.0118,3.0117,3.0117,3.0066,3.0066,3.0065,0,0,0,0,0,0,0,0,0,0,0,0,0,3.0261,3.026,3.0219,3.0218,3.0218,3.0172,3.0171,3.0171,3.0119,3.0118,3.0117,3.0116,3.0066,3.0066,3.0065,0,0,0,0,0,0,0,0,0,0,0,0,0,3.0231,3.026,3.0219,3.0186,3.0183,3.0172,3.0171,3.0171,3.0119,3.0118,3.0117,3.0116,3.0067,3.0066,3.0065,3.0081,0,0,3.0062,3.0061,0,0,0,0,0,0,0,0,3.0233,3.023,3.0192,3.0189,3.0185,3.015,3.0168,3.0141,3.012,3.0143,3.0117,3.0115,3.0095,3.0091,3.0085,3.0079,3.0077,3.0062,3.0061,3.0061,3.006,0,0,0,0,0,0,0,3.0235,3.0231,3.02,3.0191,3.0187,3.0173,3.0168,3.0162,3.0126,3.0141,3.0137,3.0133,3.0093,3.0086,3.0084,3.0076,3.0062,3.0061,3.006,3.006,3.008,3.0081,0,0,0,0,0,0,3.0242,3.0233,3.0202,3.0199,3.0207,3.0174,3.0167,3.0162,3.0126,3.0119,3.0134,3.013,3.0088,3.0085,3.0082,3.0098,3.0061,3.006,3.0059,3.0079,3.008,3.0081,0,0,0,0,0,0,3.0244,3.024,3.0204,3.0215,3.0209,3.0174,3.0169,3.0162,3.0155,3.012,3.0113,3.0134,3.0087,3.0083,3.0082,3.0095,3.0059,3.0058,3.0077,3.0079,3.008,3.0131,0,0,0,0,0,0,3.0245,3.0241,3.0247,3.0216,3.0209,3.0206,3.017,3.0162,3.0154,3.015,3.0118,3.0112,3.0086,3.0083,3.0081,3.0093,3.0058,3.0076,3.0078,3.008,3.0128,3.0134,3.0139,0,0,0,0,0,3.0247,3.0263,3.0248,3.0244,3.0217,3.0206,3.0202,3.0173,3.0156,3.0161,3.0139,3.0113,3.0094,3.0084,3.008,3.0093,3.0075,3.0077,3.008,3.0125,3.0133,3.0139,0,0,0,0,0,0,3.0296,3.0258,3.0241,3.0248,3.0231,3.0198,3.0204,3.0182,3.0169,3.0165,3.0128,3.0121,3.0124,3.0108,3.0097,3.0106,3.0081,3.0083,3.0116,3.0123,3.0129,3.0132,3.0057,0,0,0,0,0,3.0308,3.0304,3.0271,3.028,3.0272,3.024,3.0234,3.0213,3.0194,3.0186,3.0163,3.0144,3.0134,3.0128,3.0116,3.0125,3.0117,3.0132,3.0138,3.0143,3.0145,3.0147,3.0153,3.0089,3.0089,3.0089,0,0,3.0333,3.0311,3.0311,3.0289,3.0274,3.0269,3.0234,3.0231,3.0227,3.0185,3.0182,3.0165,3.0142,3.0145,3.0146,3.0132,3.016,3.0146,3.015,3.0149,3.015,3.0156,3.0162,3.0091,3.0091,3.009,0,0,3.0374,3.0358,3.0364,3.0349,3.0326,3.0304,3.0306,3.0276,3.0263,3.026,3.0228,3.0222,3.0206,3.019,3.018,3.0216,3.0191,3.0213,3.0243,3.0246,3.0251,3.0255,3.0267,3.0272,3.0215,3.0215,3.0215,0,3.0407,3.04,3.0369,3.0368,3.0359,3.0322,3.0327,3.0313,3.0288,3.0282,3.0267,3.0245,3.0227,3.0226,3.0235,3.0228,3.0227,3.0216,3.0253,3.0257,3.026,3.0271,3.0276,3.0218,3.0218,3.0217,3.0217,0,3.0441,3.0437,3.0444,3.0421,3.0412,3.0414,3.0383,3.0378,3.0358,3.0337,3.0334,3.0311,3.0294,3.0292,3.0272,3.0288,3.028,3.026,3.0233,3.027,3.0279,3.0283,3.0222,3.0221,3.022,3.0219,0,0,3.0513,3.0473,3.0476,3.0464,3.0436,3.0432,3.0431,3.0415,3.0412,3.0395,3.0393,3.038,3.0361,3.0349,3.0327,3.0329,3.0358,3.0308,3.0307,3.0318,3.0373,3.0389,3.0394,3.0342,3.0343,3.0343,3.0375,0,3.0549,3.0547,3.0519,3.0525,3.052,3.0484,3.0484,3.0466,3.0447,3.0439,3.0417,3.0408,3.0384,3.0377,3.0378,3.0355,3.0369,3.0352,3.0339,3.0339,3.0345,3.0399,3.0415,3.0446,3.0379,3.0379,3.038,0,3.0591,3.0577,3.0583,3.0554,3.0551,3.0551,3.0534,3.0527,3.0506,3.0492,3.0479,3.0454,3.045,3.0426,3.042,3.0409,3.0402,3.039,3.039,3.0387,3.0361,3.0397,3.0455,3.046,3.0385,3.0385,3.0385,0,3.0641,3.0625,3.0626,3.0617,3.0584,3.0585,3.0571,3.0548,3.054,3.0525,3.0519,3.0504,3.0495,3.0483,3.0453,3.0439,3.045,3.0424,3.0437,3.0438,3.0441,3.0441,3.0499,3.0438,3.0438,3.0438,3.0437,0,3.0684,3.0689,3.0648,3.0648,3.0652,3.062,3.0624,3.0606,3.0587,3.0582,3.055,3.0547,3.0508,3.05,3.0477,3.0475,3.0471,3.0459,3.0452,3.0461,3.0463,3.0455,3.0452,3.0439,3.0438,3.0438,3.0438,0,3.0741,3.0714,3.0713,3.0682,3.0674,3.0678,3.0651,3.0649,3.0628,3.0623,3.062,3.0586,3.0575,3.0545,3.0525,3.0509,3.0513,3.0502,3.0521,3.0517,3.0531,3.053,3.0586,3.0591,3.0528,3.0529,3.0529,0,3.077,3.0773,3.0742,3.0738,3.0725,3.0718,3.071,3.0678,3.067,3.0646,3.0647,3.0633,3.0621,3.0603,3.0577,3.0561,3.0549,3.0569,3.0546,3.0555,3.0548,3.0548,3.0548,3.0574,3.0575,3.0576,3.0576,0,3.0824,3.081,3.0801,3.0786,3.0778,3.0764,3.0749,3.0747,3.0711,3.0704,3.0692,3.0682,3.0663,3.0649,3.0629,3.0613,3.0588,3.0584,3.0586,3.0595,3.0605,3.0599,3.0534,3.0583,3.0582,3.0582,3.0581,3.0581,3.0867,3.0868,3.0846,3.0836,3.0822,3.0808,3.0805,3.0784,3.0774,3.0756,3.0738,3.0728,3.0705,3.0676,3.0662,3.0653,3.064,3.0643,3.0644,3.0645,3.0649,3.0608,3.0649,3.0649,3.0649,3.0649,3.0648,0,3.0919,3.0903,3.0894,3.0874,3.0866,3.0845,3.0827,3.0821,3.0813,3.0795,3.0783,3.0769,3.0755,3.0728,3.0711,3.0709,3.0697,3.0706,3.0705,3.0702,3.0662,3.0661,3.0716,3.0716,3.0716,3.0716,3.0716,3.0716,3.0944,3.0944,3.0928,3.092,3.0904,3.0895,3.0886,3.0873,3.0858,3.0845,3.0833,3.0816,3.0793,3.0775,3.0761,3.0753,3.0748,3.076,3.0748,3.0711,3.0705,3.0699,3.0698,3.0759,3.0759,3.0789,3.0789,3.0789]}]]